{"data":{"norad_id":67080,"epoch":"2026-05-25T03:25:14.471040Z","epoch_age_seconds":56009,"freshness":"FRESH","line1":"1 67080U 25298F   26145.14252860  .00003353  00000+0  28866-3 0  9999","line2":"2 67080  70.0014 181.5177 0003127 269.6439  90.4362 14.98328829 24674","mean_motion":14.98328829,"eccentricity":0.0003127,"inclination_deg":70.0014,"raan_deg":181.5177,"arg_perigee_deg":269.6439,"mean_anomaly_deg":90.4362,"bstar":0.00028866,"rev_number":2467,"period_min":96.107074236906,"perigee_km":569.88618571832,"apogee_km":574.23283861703,"semimajor_km":6950.1965121677,"source":"CELESTRAK","updated_at":"2026-05-25T13:38:21.465149Z"}}